Location: Boiro
(42.6475°N, 8.8834°W)
Time: 02:27:54
(UTC+01:00)

Explorer 11/Cluster Stage 4 - Pass Details

Date: 07 December 2021
Orbit: 467 x 1255 km, 28.8° (Epoch: 20 January)

Event Time Altitude Azimuth Distance (km) Brightness Sun altitude
Rises 03:42:52 0° 238° (WSW) 3,277 - -55.4°
Reaches altitude 10° 03:45:38 10° 224° (SW) 2,485 - -55.0°
Maximum altitude 03:50:19 23° 174° (S) 1,909 - -54.2°
Drops below altitude 10° 03:55:44 10° 124° (SE) 2,922 - -53.3°
Exits shadow 03:57:31 - 117° (ESE) 3,439 10.1 -53.0°
Sets 03:59:19 0° 112° (ESE) 3,999 10.6 -52.6°
